Regional Weather Roundup
Issued by NWS Midland/Odessa, TX

Skip options and go directly to product.
Home | Oldest Version | Previous Version | Current Version | All | Graphics & Text | Save Text | Print | Product List | Glossary On

Skip product version selection by date and time.   
173
ASUS44 KMAF 181310
RWRMAF
MIDLAND AREA WEATHER ROUNDUP
NATIONAL WEATHER SERVICE MIDLAND TX
700 AM CST THU DEC 18 2014

...IN SOUTHWEST TEXAS AND SOUTHEAST NEW MEXICO...

CITY           SKY/WX    TMP DP  RH WIND       PRES   REMARKS
ALPINE         PTCLDY    31  26  81 SW7       30.19S WCI  24
ANDREWS        FAIR      37  30  75 CALM      30.10R
ARTESIA        CLEAR     34  28  80 N12       30.11R WCI  25
BIG SPRING     CLEAR     40  34  79 CALM      30.12R
CARLSBAD       PTCLDY    48  34  58 W13       30.08R
DRYDEN           N/A     45  44  97 W3        30.10R
FORT STOCKTON  CLEAR     43  29  57 SW12      30.12R WCI  37
GUAD PASS      NOT AVBL
HOBBS          CLEAR     37  32  81 NW6       30.10R WCI  33
MARFA          PTCLDY    27  23  86 N6        30.16R WCI  20
MIDLAND AIRPK  CLEAR     44  32  62 W5        30.10R
MIDLAND INTL   CLEAR     40  32  73 W8        30.09R WCI  34
ODESSA         CLEAR     43  31  62 W8        30.10R WCI  38
PECOS          CLEAR     41  31  67 SW12      30.11R WCI  34
PRESIDIO       FAIR      43  30  60 N8        30.12R WCI  38
SEMINOLE       CLEAR     35  29  81 W5        30.11R WCI  31
SNYDER         CLEAR     36  35  98 SW6       30.10R FOG     WCI  31
WINK           PTCLDY    36  26  67 CALM      30.09R
$$
...OTHER STATIONS IN TEXAS...

CITY           SKY/WX    TMP DP  RH WIND       PRES   REMARKS
ABILENE        CLEAR     44  43  96 SW8       30.09R WCI  39
AMARILLO       CLOUDY    35  34  96 N10       30.07R FOG     WCI  27
AUSTIN         FOG       48  48 100 N8        30.11R VSB 1
BROWNSVILLE    CLOUDY    70  68  93 SE3       30.01R
CORPUS CHRISTI CLOUDY    69  67  93 SE7       30.03R
DALLAS FTW     DRIZZLE   43  42  97 E5        30.13R FOG
DEL RIO        CLOUDY    53  50  89 W8        30.10R
EL PASO        PTCLDY    37  32  82 E5        30.13R WCI  33
HOUSTON INT    CLOUDY    59  58  96 N8        30.08R
LUBBOCK        CLEAR     33  29  85 W9        30.06R WCI  25
SAN ANGELO     FOG       45  44  97 SW6       30.10R VSB 1
SAN ANTONIO    FOG       57  55  93 NE3       30.09R VSB 3/4
WACO           CLOUDY    46  45  96 CALM      30.12R FOG
WICHITA FALLS  NOT AVBL
$$
...OTHER LOCATIONS IN NEW MEXICO...

CITY           SKY/WX    TMP DP  RH WIND       PRES   REMARKS
ALAMAGORDO     PTCLDY    37  32  81 S8        30.13R WCI  31
ALBUQUERQUE    CLEAR     31  27  85 S3        30.13R
CANNON AFB     CLEAR     33  26  77 NW9       30.06R WCI  25
CLOVIS         CLEAR     34  27  75 W15       30.05S WCI  24
HOLLOMAN AFB   PTCLDY    39  33  79 SE6       30.12R WCI  35
ROSWELL        CLEAR     33  27  78 NW5       30.09S WCI  29
RUIDOSO        CLEAR     32  27  80 N3        30.11R
SANTA FE       CLEAR     22  19  89 N7        30.09S WCI  13
TRUTH OR CONSE CLOUDY    39  30  70 CALM      30.12R
TUCUMCARI      FOG       29  28  96 E6        30.06R VSB 1/4 WCI  23
$$

USA.gov is the U.S. government's official web portal to all federal, state and local government web resources and services.